Regional Weather Roundup
Issued by NWS

Home | Current Version | Previous Version | Text Only | Print | Product List | Glossary Off
Versions: 1 2 3 4 5 6 7 8 9 10 11 12 13 14 15 16 17 18 19 20 21 22 23 24 25 26 27 28 29 30 31 32 33 34 35 36 37 38 39 40 41 42 43 44 45 46 47 48 49 50

000
ASUS43 KIND 031409
RWRIN

WEATHER ROUNDUP FOR INDIANA
NATIONAL WEATHER SERVICE INDIANAPOLIS IN
1000 AM EDT MON AUG 03 2015

NOTE: "FAIR" INDICATES FEW OR NO CLOUDS BELOW 12,000 FEET WITH NO
SIGNIFICANT WEATHER AND/OR OBSTRUCTIONS TO VISIBILITY.

* - STATION DOES NOT REPORT WEATHER SUCH AS PRECIPITATION OR FOG.

+ - STATION NOT QUALITY CONTROLLED BY THE NATIONAL WEATHER SERVICE.
    USE DATA WITH CAUTION...ESPECIALLY DEWPOINT AND RELATIVE
    HUMIDITY OBSERVATIONS.

INZ001>003-010>013-019-020-031500-
NORTHWEST INDIANA

CITY           SKY/WX    TMP DP  RH WIND       PRES   REMARKS
GARY /AIRPORT/ MOSUNNY   75  66  73 NW9       29.83S
KNOX *+        SUNNY     70  64  83 CALM      29.83S
LA PORTE +     SUNNY     75  67  77 NW8       29.84S
MICHIGAN CITY+ PTSUNNY   72  68  88 NW6       29.83S
MONTICELLO +   SUNNY     73  71  95 NW5       29.82R
RENSSELAER +   SUNNY     73  68  83 N3        29.84R
VALPARAISO     SUNNY     75  65  70 N7        29.83S

$$

LMZ046-743>745-031500-
SOUTHERN LAKE MICHIGAN

STATION/POSITION TIME  TEMP    WIND        PRES    WAVE
                       AIR SEA DIR/SP/G            HT
                 (UTC) (F)     (DEG/KT/KT) (MB)    (FT)
BURNS HARBOR     1300   72     300/  5/  5 1010.5R
MICHIGAN CITY    1300   72     260/  9/ 10   N/A
5NW MICH CITY    1400   72 73  330/  8/ 10   N/A     1

$$

INZ004-005-014>016-021>024-031500-
NORTH CENTRAL INDIANA

CITY           SKY/WX    TMP DP  RH WIND       PRES   REMARKS
ELKHART        PTSUNNY   70  66  88 W7        29.83S
GOSHEN         CLOUDY    68  64  87 VRB3      29.83R
LOGANSPORT +   MOSUNNY   72  64  78 CALM      29.83S
ROCHESTER +    SUNNY     73  66  78 NW3       29.84R
SOUTH BEND     MOSUNNY   72  65  78 W5        29.83S
WARSAW +       CLOUDY    68  64  88 NW5       29.84S

$$

INZ006>009-017-018-025>027-031500-
NORTHEAST INDIANA

CITY           SKY/WX    TMP DP  RH WIND       PRES   REMARKS
ANGOLA *+      CLOUDY    70  61  73 W7        29.83R
AUBURN +       CLOUDY    68  63  83 W7        29.84S
FORT WAYNE     PTSUNNY   72  66  81 W12       29.84R
HUNTINGTON +   CLOUDY    69  65  88 W5        29.83S

$$

INZ028-029-035-036-043>045-051>053-031500-
WEST CENTRAL INDIANA

CITY           SKY/WX    TMP DP  RH WIND       PRES   REMARKS
CRAWFORDSVL +  SUNNY     75  69  80 W5          N/A
GREENCASTLE +  SUNNY     77  68  73 CALM      29.85F
LAFAYETTE      SUNNY     76  71  85 W6        29.82R
TERRE HAUTE    SUNNY     80  69  69 NW6       29.84F

$$

INZ030>032-037>040-046>048-054>057-064-065-031500-
CENTRAL INDIANA

CITY           SKY/WX    TMP DP  RH WIND       PRES   REMARKS
COLUMBUS       PTSUNNY   73  59  60 S13G22    29.89S
FISHERS *+     CLOUDY    70  68  94 S9        29.85F
FRANKFORT +    PTSUNNY   77  77 100 SW3       29.85S
GREENWOOD *+   CLOUDY    77  66  69 S10       29.87S
INDIANAPOLIS   PTSUNNY   77  70  79 SW8       29.84S
-EAGLE CREEK   CLOUDY    75  70  84 SW6       29.84S
KOKOMO *+      PTSUNNY   73  68  83 S8        29.83S
MARION +       CLOUDY    69  65  89 S10       29.84S
MT COMFORT *+  CLOUDY    70 N/A N/A S7        29.87S
SHELBYVILLE    CLOUDY    74  65  73 S14       29.87R
ZIONSVILLE +   CLOUDY    75  69  81 S7        29.86S

$$

INZ033-034-041-042-049-050-058-059-031500-
EAST CENTRAL INDIANA

CITY           SKY/WX    TMP DP  RH WIND       PRES   REMARKS
MUNCIE         CLOUDY    67  64  90 S10       29.85S

$$

INZ060-061-067>069-081>083-085>088-031500-
SOUTHWEST INDIANA

CITY           SKY/WX    TMP DP  RH WIND       PRES   REMARKS
EVANSVILLE     MOSUNNY   83  70  64 W8        29.89R
HUNTINGBURG *+ SUNNY     79  70  73 W6        29.89S
WASHINGTON +   SUNNY     80  67  64 W6        29.86S

$$

INZ062-063-066-070>080-084-089>092-031500-
SOUTH CENTRAL AND SOUTHEAST INDIANA

CITY           SKY/WX    TMP DP  RH WIND       PRES   REMARKS
BLOOMINGTON    SUNNY     79  71  76 CALM      29.87S
MADISON *+     PTSUNNY   72  59  64 S12G17    29.93R
NORTH VERNON + PTSUNNY   73  61  64 S10       29.90F
SEYMOUR +      PTSUNNY   75  63  64 S13       29.89F

$$



USA.gov is the U.S. government's official web portal to all federal, state and local government web resources and services.